FW6934 Weather Reports


time (UTC)temp
F
wind
direction
speed
knots
gust
knots
rain 1hr
in
rain 24hr
in
rain mn
in
humidity
%
barometer
mb
20260510220045 69 5 2.6 5.2 0.00 0.00 0.00 55 1007.6
20260510215551 67 228 0.9 4.3 0.00 0.00 0.00 54 1007.5
20260510215059 67 279 2.6 4.3 0.00 0.00 0.00 54 1007.5
20260510214537 67 284 1.7 5.2 0.00 0.00 0.00 58 1007.5
20260510214045 68 291 2.6 8.7 0.00 0.00 0.00 56 1007.6
20260510213554 68 40 3.5 8.7 0.00 0.00 0.00 55 1007.5
20260510213030 69 26 2.6 7.8 0.00 0.00 0.00 56 1007.6
20260510212539 68 296 0.9 7.0 0.00 0.00 0.00 58 1007.7
20260510212041 68 273 0.9 7.0 0.00 0.00 0.00 57 1007.7
20260510211520 67 350 1.7 7.8 0.00 0.00 0.00 58 1007.6
20260510211026 68 350 1.7 7.8 0.00 0.00 0.00 54 1007.6
20260510210533 68 293 1.7 7.8 0.00 0.00 0.00 54 1007.6
20260510210004 68 293 3.5 7.8 0.00 0.00 0.00 54 1007.5
20260510205517 67 344 1.7 7.0 0.00 0.00 0.00 55 1007.4
20260510205027 67 257 1.7 7.0 0.00 0.00 0.00 57 1007.5
20260510204602 67 99 0.9 3.5 0.00 0.00 0.00 56 1007.5
20260510204004 67 30 1.7 3.5 0.00 0.00 0.00 60 1007.6
20260510203511 66 317 1.7 3.5 0.00 0.00 0.00 57 1007.7
20260510203033 65 82 1.7 7.0 0.00 0.00 0.00 58 1007.8
20260510202541 66 309 3.5 7.0 0.00 0.00 0.00 57 1007.9
20260510202048 67 38 2.6 7.0 0.00 0.00 0.00 54 1007.7
20260510201515 67 257 1.7 8.7 0.00 0.00 0.00 56 1007.7
20260510201029 67 267 4.3 8.7 0.00 0.00 0.00 56 1007.7
20260510200539 67 66 2.6 7.0 0.00 0.00 0.00 55 1007.6
20260510200005 67 333 2.6 5.2 0.00 0.00 0.00 57 1007.5
20260510195519 66 246 1.7 8.7 0.00 0.00 0.00 58 1007.5
20260510195025 67 332 3.5 8.7 0.00 0.00 0.00 55 1007.5
20260510194602 67 46 2.6 9.6 0.00 0.00 0.00 61 1007.4
20260510194058 66 67 3.5 7.0 0.00 0.00 0.00 59 1007.4
20260510193559 65 355 3.5 8.7 0.00 0.00 0.00 62 1007.5
20260510193034 64 44 4.3 8.7 0.00 0.00 0.00 63 1007.6
20260510192546 64 26 1.7 5.2 0.00 0.00 0.00 62 1007.7
20260510192051 65 9 1.7 4.3 0.00 0.00 0.00 62 1007.6
20260510191530 64 351 0.0 7.0 0.00 0.00 0.00 64 1007.6
20260510191037 64 286 3.5 8.7 0.00 0.00 0.00 62 1007.6
20260510190546 64 46 3.5 8.7 0.00 0.00 0.00 63 1007.7
20260510190012 64 327 2.6 4.3 0.00 0.00 0.00 64 1007.8
20260510185527 64 314 1.7 4.3 0.00 0.00 0.00 62 1007.8
20260510185035 64 283 2.6 5.2 0.00 0.00 0.00 63 1007.7
20260510184513 64 51 1.7 4.3 0.00 0.00 0.00 61 1007.3
20260510184018 64 63 0.9 5.2 0.00 0.00 0.00 61 1007.3
20260510183527 64 281 1.7 5.2 0.00 0.00 0.00 62 1007.3
20260510183057 65 287 2.6 5.2 0.00 0.00 0.00 62 1007.3
20260510182506 65 355 2.6 7.0 0.00 0.00 0.00 60 1007.2
20260510182011 65 269 2.6 8.7 0.00 0.00 0.00 64 1007.3
20260510181551 65 344 3.5 8.7 0.00 0.00 0.00 61 1006.9
20260510181057 65 30 3.5 7.8 0.00 0.00 0.00 65 1007.0
20260510180603 64 59 3.5 5.2 0.00 0.00 0.00 64 1007.0
20260510180038 64 314 1.7 5.2 0.00 0.00 0.00 64 1006.9
20260510175545 64 19 1.7 10.4 0.00 0.00 0.00 65 1006.9
20260510175051 64 78 2.6 10.4 0.00 0.00 0.00 66 1006.9
20260510174528 63 40 1.7 5.2 0.00 0.00 0.00 65 1006.9
20260510174031 64 5 2.6 5.2 0.00 0.00 0.00 66 1006.9
20260510173537 64 58 2.6 5.2 0.00 0.00 0.00 65 1006.9
20260510173003 64 39 2.6 5.2 0.00 0.00 0.00 64 1007.0
20260510172501 63 149 0.0 4.3 0.00 0.00 0.00 66 1007.0
20260510172007 62 34 1.7 5.2 0.00 0.00 0.00 66 1007.0
20260510171543 62 51 1.7 5.2 0.00 0.00 0.00 66 1007.1
20260510171051 62 26 0.0 4.3 0.00 0.00 0.00 67 1006.9
20260510170552 62 28 0.9 4.3 0.00 0.00 0.00 67 1006.7
20260510170027 62 84 1.7 3.5 0.00 0.00 0.00 68 1006.7
20260510165536 61 69 1.7 4.3 0.00 0.00 0.00 67 1006.7
20260510165038 61 348 0.0 4.3 0.00 0.00 0.00 68 1006.7
20260510164556 61 17 2.6 4.3 0.00 0.00 0.00 67 1006.6
20260510164057 61 347 2.6 6.1 0.00 0.00 0.00 68 1006.6
20260510163559 61 61 1.7 6.1 0.00 0.00 0.00 68 1006.6
20260510163049 61 42 0.9 7.0 0.00 0.00 0.00 67 1006.6
20260510162545 61 61 3.5 7.0 0.00 0.00 0.00 68 1006.6
20260510162054 61 37 3.5 6.1 0.00 0.00 0.00 69 1006.7
20260510161521 60 65 3.5 5.2 0.00 0.00 0.00 69 1006.7
20260510161025 59 355 1.7 5.2 0.00 0.00 0.00 69 1006.8
20260510160533 59 22 2.6 5.2 0.00 0.00 0.00 71 1006.7
20260510160112 59 70 2.6 5.2 0.00 0.00 0.00 71 1006.6
20260510155603 59 40 3.5 7.8 0.00 0.00 0.00 72 1006.4
20260510155007 58 31 2.6 7.0 0.00 0.00 0.00 71 1006.5
20260510154539 58 291 0.9 7.0 0.00 0.00 0.00 71 1006.6
20260510154039 58 71 1.7 7.0 0.00 0.00 0.00 72 1006.6
20260510153546 57 293 0.9 7.0 0.00 0.00 0.00 73 1006.7
20260510153021 57 256 2.6 6.1 0.00 0.00 0.00 74 1006.7
20260510152529 57 285 2.6 5.2 0.00 0.00 0.00 75 1006.5
20260510152032 57 355 0.9 6.1 0.00 0.00 0.00 76 1006.2
20260510151559 56 298 2.6 6.1 0.00 0.00 0.00 77 1006.3
20260510151001 56 318 0.0 1.7 0.00 0.00 0.00 79 1006.3
20260510150516 55 50 0.0 0.0 0.00 0.00 0.00 80 1006.3
20260510150027 54 15 0.0 0.0 0.00 0.00 0.00 81 1006.2
20260510145533 54 12 0.0 1.7 0.00 0.00 0.00 80 1006.3
20260510145032 54 12 0.0 1.7 0.00 0.00 0.00 80 1006.3
20260510144602 53 322 0.0 2.6 0.00 0.00 0.00 81 1006.2
20260510144025 53 310 0.9 2.6 0.00 0.00 0.00 82 1006.2
20260510143511 53 194 0.9 6.1 0.00 0.00 0.00 82 1006.0
20260510143107 53 290 0.9 6.1 0.00 0.00 0.00 83 1006.0
20260510142558 53 290 0.9 3.5 0.00 0.00 0.00 83 1006.2
20260510142003 52 225 0.0 2.6 0.00 0.00 0.00 83 1006.3
20260510141542 52 266 0.0 2.6 0.00 0.00 0.00 83 1006.1
20260510141051 52 245 0.0 0.0 0.00 0.00 0.00 83 1005.7
20260510140552 52 245 0.0 1.7 0.00 0.00 0.00 83 1005.8
20260510140007 52 245 0.0 1.7 0.00 0.00 0.00 84 1005.7
20260510135514 52 245 0.0 2.6 0.00 0.00 0.00 84 1005.6
20260510135022 52 245 0.0 2.6 0.00 0.00 0.00 83 1005.6
20260510134535 52 238 0.9 1.7 0.00 0.00 0.00 83 1005.8
20260510134044 52 230 0.0 2.6 0.00 0.00 0.00 83 1005.5
20260510133550 52 227 0.0 2.6 0.00 0.00 0.00 83 1005.7
20260510133058 52 227 0.0 2.6 0.00 0.00 0.00 83 1005.6
20260510132503 52 227 0.0 2.6 0.00 0.00 0.00 83 1005.6
20260510132017 52 227 0.9 2.6 0.00 0.00 0.00 83 1005.6
20260510131531 52 227 0.0 1.7 0.00 0.00 0.00 83 1005.3
20260510131033 52 227 0.9 1.7 0.00 0.00 0.00 83 1005.3
20260510130541 52 227 0.9 3.5 0.00 0.00 0.00 83 1005.2
20260510125503 52 261 0.9 2.6 0.00 0.00 0.00 83 1005.3
20260510125016 52 257 0.9 2.6 0.00 0.00 0.00 83 1005.3
20260510124552 52 257 0.0 2.6 0.00 0.00 0.00 83 1005.4
20260510124058 52 257 0.0 2.6 0.00 0.00 0.00 83 1005.5
20260510123603 52 292 0.0 0.9 0.00 0.00 0.00 83 1005.6
20260510123036 52 292 0.0 2.6 0.00 0.00 0.00 83 1005.6
20260510122540 52 292 0.0 2.6 0.00 0.00 0.00 83 1005.5
20260510122042 52 292 0.9 3.5 0.00 0.00 0.00 83 1005.5
20260510121556 52 292 0.0 3.5 0.00 0.00 0.00 83 1005.5
20260510121105 52 317 1.7 2.6 0.00 0.00 0.00 83 1005.4
20260510120602 52 14 0.9 2.6 0.00 0.00 0.00 83 1005.4
20260510120036 52 329 0.0 4.3 0.00 0.00 0.00 83 1005.5
20260510115542 53 329 1.7 4.3 0.00 0.00 0.00 83 1005.3
20260510115046 53 277 1.7 4.3 0.00 0.00 0.00 83 1005.4
20260510114518 53 290 0.0 4.3 0.00 0.00 0.00 83 1005.2
20260510114025 53 290 0.9 4.3 0.00 0.00 0.00 83 1005.3
20260510113530 53 230 0.0 3.5 0.00 0.00 0.00 83 1005.3
20260510113108 53 223 0.9 4.3 0.00 0.00 0.00 83 1005.2
20260510112602 53 287 1.7 4.3 0.00 0.00 0.00 83 1005.1
20260510112016 53 304 0.9 5.2 0.00 0.00 0.00 83 1005.2
20260510111526 53 295 0.9 5.2 0.00 0.00 0.00 82 1005.2
20260510111032 53 316 1.7 4.3 0.00 0.00 0.00 82 1005.4
20260510110538 53 273 0.0 2.6 0.00 0.00 0.00 82 1005.4
20260510110105 54 228 0.9 2.6 0.00 0.00 0.00 82 1005.3
20260510105513 54 46 0.0 0.0 0.00 0.00 0.00 82 1005.1
20260510105008 54 46 0.0 1.7 0.00 0.00 0.00 81 1004.9
20260510104533 54 46 0.0 2.6 0.00 0.00 0.00 81 1005.0
20260510104032 54 46 0.0 3.5 0.00 0.00 0.00 81 1004.9
20260510103538 54 360 0.0 3.5 0.00 0.00 0.00 81 1004.8
20260510103051 55 5 0.0 3.5 0.00 0.00 0.00 81 1004.8
20260510102552 55 21 1.7 3.5 0.00 0.00 0.00 80 1004.6
20260510102100 55 34 1.7 2.6 0.00 0.00 0.00 79 1004.6
20260510101536 55 5 0.9 2.6 0.00 0.00 0.00 79 1004.6
20260510101041 55 20 0.0 0.9 0.00 0.00 0.00 79 1004.3
20260510100541 55 20 0.0 0.9 0.00 0.00 0.00 79 1004.4
20260510100016 56 20 0.0 1.7 0.00 0.00 0.00 79 1004.2
20260510095522 56 20 0.9 1.7 0.00 0.00 0.00 78 1004.1
20260510095024 56 20 0.9 2.6 0.00 0.00 0.00 78 1003.9
20260510094552 56 28 1.7 2.6 0.00 0.00 0.00 77 1003.7
20260510094056 56 28 0.9 2.6 0.00 0.00 0.00 76 1003.7
20260510093602 56 28 0.0 0.0 0.00 0.00 0.00 76 1003.8
20260510093004 57 28 0.0 0.0 0.00 0.00 0.00 75 1003.8
20260510092509 57 28 0.0 0.0 0.00 0.00 0.00 75 1004.0
20260510092016 57 320 0.0 0.0 0.00 0.00 0.00 75 1004.0
20260510091544 57 279 0.0 0.0 0.00 0.00 0.00 74 1004.0
20260510091050 57 279 0.0 0.0 0.00 0.00 0.00 74 1004.0
20260510090556 57 279 0.0 0.0 0.00 0.00 0.00 74 1003.9
20260510090022 58 279 0.0 0.0 0.00 0.00 0.00 73 1003.9
20260510085525 58 279 0.0 0.0 0.00 0.00 0.00 73 1004.0
20260510085026 58 279 0.0 0.0 0.00 0.00 0.00 73 1003.9
20260510084559 58 279 0.0 0.0 0.00 0.00 0.00 73 1004.0
20260510084055 58 279 0.0 0.0 0.00 0.00 0.00 73 1003.9
20260510083600 58 279 0.0 0.0 0.00 0.00 0.00 72 1003.9
20260510083042 59 279 0.0 0.0 0.00 0.00 0.00 72 1003.8
20260510082533 59 279 0.0 0.0 0.00 0.00 0.00 72 1003.7
20260510082042 59 279 0.0 0.0 0.00 0.00 0.00 71 1003.7
20260510081534 59 279 0.0 2.6 0.00 0.00 0.00 71 1003.8
20260510081029 59 279 0.0 2.6 0.00 0.00 0.00 71 1003.7
20260510080515 59 269 0.0 0.0 0.00 0.00 0.00 71 1003.8
20260510080048 59 205 0.0 0.0 0.00 0.00 0.00 70 1003.7
20260510075555 60 205 0.0 0.0 0.00 0.00 0.00 69 1003.8
20260510075058 60 205 0.0 1.7 0.00 0.00 0.00 69 1003.7
20260510074510 60 199 0.0 2.6 0.00 0.00 0.00 69 1003.7
20260510074021 60 199 0.9 3.5 0.00 0.00 0.00 68 1003.6
20260510073527 60 199 0.9 3.5 0.00 0.00 0.00 68 1003.6
20260510073104 60 266 0.9 2.6 0.00 0.00 0.00 68 1003.6
20260510072507 60 268 0.9 2.6 0.00 0.00 0.00 68 1003.6
20260510072012 61 269 0.9 2.6 0.00 0.00 0.00 68 1003.7
20260510071540 61 269 1.7 2.6 0.00 0.00 0.00 67 1003.7
20260510071045 61 269 0.0 1.7 0.00 0.00 0.00 67 1003.7
20260510070553 61 269 0.0 1.7 0.00 0.00 0.00 67 1003.7
20260510070024 61 269 0.0 1.7 0.00 0.00 0.00 67 1003.7
20260510065523 61 268 0.0 0.0 0.00 0.00 0.00 66 1003.7
20260510065033 61 269 0.0 0.0 0.00 0.00 0.00 66 1003.7
20260510064552 61 269 0.0 0.0 0.00 0.00 0.00 66 1003.8
20260510064041 61 269 0.0 0.0 0.00 0.00 0.00 66 1003.7
20260510063548 61 268 0.0 1.7 0.00 0.00 0.00 66 1003.6
20260510063022 62 268 0.0 3.5 0.00 0.00 0.00 66 1003.7
20260510062523 62 294 0.9 2.6 0.00 0.00 0.00 65 1003.6
20260510062032 62 259 0.0 0.0 0.00 0.00 0.00 65 1003.6
20260510061505 62 235 0.0 2.6 0.00 0.00 0.00 64 1003.5
20260510061007 62 235 0.9 2.6 0.00 0.00 0.00 64 1003.5
20260510060516 62 232 0.9 2.6 0.00 0.00 0.00 63 1003.6
20260510060053 62 232 0.9 2.6 0.00 0.00 0.00 63 1003.5
20260510055600 62 232 1.7 2.6 0.00 0.00 0.00 63 1003.6
20260510055100 63 232 0.9 2.6 0.00 0.00 0.00 62 1003.6
20260510054537 63 232 1.7 2.6 0.00 0.00 0.00 61 1003.6
20260510054044 63 232 1.7 2.6 0.00 0.00 0.00 61 1003.6
20260510053545 63 232 0.9 2.6 0.00 0.00 0.00 61 1003.6
20260510053016 63 232 1.7 2.6 0.00 0.00 0.00 60 1003.6
20260510052518 63 232 0.9 2.6 0.00 0.00 0.00 60 1003.5
20260510052034 63 232 1.7 2.6 0.00 0.00 0.00 60 1003.5
20260510051605 64 232 1.7 2.6 0.00 0.00 0.00 59 1003.5
20260510051004 64 238 1.7 2.6 0.00 0.00 0.00 59 1003.5
20260510050509 64 238 1.7 2.6 0.00 0.00 0.00 59 1003.4
20260510050043 64 238 1.7 2.6 0.00 0.00 0.00 59 1003.4
20260510045552 64 238 0.9 2.6 0.00 0.00 0.00 59 1003.5
20260510045100 64 292 0.9 2.6 0.00 0.00 0.00 58 1003.4
20260510044544 64 247 0.9 2.6 0.00 0.00 0.00 58 1003.4
20260510044033 64 275 0.9 3.5 0.00 0.00 0.00 58 1003.5
20260510043538 65 232 0.9 3.5 0.00 0.00 0.00 57 1003.4
20260510043004 65 223 0.9 3.5 0.00 0.00 0.00 57 1003.4
20260510042504 65 268 0.9 3.5 0.00 0.00 0.00 57 1003.3
20260510042012 65 238 1.7 3.5 0.00 0.00 0.00 57 1003.4
20260510041550 65 224 0.9 2.6 0.00 0.00 0.00 57 1003.3
20260510041050 66 227 0.9 2.6 0.00 0.00 0.00 57 1003.1
20260510040556 66 226 0.0 2.6 0.00 0.00 0.00 57 1003.0
20260510040042 66 272 0.0 2.6 0.00 0.00 0.00 56 1003.0
20260510035544 67 285 0.9 2.6 0.00 0.00 0.00 56 1002.8
20260510035035 67 293 0.9 2.6 0.00 0.00 0.00 56 1002.7
20260510034546 67 280 0.9 2.6 0.00 0.00 0.00 56 1002.8
20260510034056 67 285 0.9 1.7 0.00 0.00 0.00 56 1002.7
20260510033604 68 285 0.9 1.7 0.00 0.00 0.00 55 1002.7
20260510033055 68 285 0.0 1.7 0.00 0.00 0.00 55 1002.7
20260510032550 68 285 0.9 1.7 0.00 0.00 0.00 55 1002.7
20260510032054 69 285 0.9 1.7 0.00 0.00 0.00 55 1002.6
20260510031532 69 285 0.9 1.7 0.00 0.00 0.00 55 1002.6
20260510031035 69 350 0.0 1.7 0.00 0.00 0.00 55 1002.6
20260510030541 69 350 0.9 1.7 0.00 0.00 0.00 54 1002.5
20260510030021 70 350 0.0 2.6 0.00 0.00 0.00 53 1002.5
20260510025529 70 350 0.9 3.5 0.00 0.00 0.00 53 1002.5
20260510025041 70 329 1.7 3.5 0.00 0.00 0.00 53 1002.5
20260510024517 71 51 0.0 4.3 0.00 0.00 0.00 53 1002.5
20260510024021 71 60 1.7 4.3 0.00 0.00 0.00 52 1002.5
20260510023528 71 22 1.7 4.3 0.00 0.00 0.00 52 1002.5
20260510023102 71 31 1.7 5.2 0.00 0.00 0.00 52 1002.4
20260510022508 72 20 1.7 5.2 0.00 0.00 0.00 52 1002.4
20260510022013 72 55 2.6 4.3 0.00 0.00 0.00 51 1002.4
20260510021552 72 11 0.9 3.5 0.00 0.00 0.00 53 1002.4
20260510021059 72 351 0.0 4.3 0.00 0.00 0.00 50 1002.3
20260510020507 72 43 0.9 3.5 0.00 0.00 0.00 48 1002.3
20260510020048 72 19 0.0 3.5 0.00 0.00 0.00 48 1002.3
20260510015555 73 17 1.7 3.5 0.00 0.00 0.00 48 1002.5
20260510015019 73 355 0.0 0.0 0.00 0.00 0.00 48 1002.4
20260510014528 73 355 0.0 0.0 0.00 0.00 0.00 47 1002.4
20260510014032 74 355 0.0 1.7 0.00 0.00 0.00 45 1002.5
20260510013536 74 350 0.9 1.7 0.00 0.00 0.00 47 1002.6
20260510013008 74 351 0.0 2.6 0.00 0.00 0.00 42 1002.5
20260510012519 74 350 0.9 2.6 0.00 0.00 0.00 40 1002.5
20260510012029 74 314 0.9 1.7 0.00 0.00 0.00 46 1002.5
20260510011558 75 314 0.9 2.6 0.00 0.00 0.00 44 1002.5
20260510011004 75 312 0.9 2.6 0.00 0.00 0.00 43 1002.6
20260510010511 75 331 0.9 2.6 0.00 0.00 0.00 42 1002.6
20260510010049 75 331 0.0 1.7 0.00 0.00 0.00 44 1002.6
20260510005557 74 22 0.0 2.6 0.00 0.00 0.00 45 1002.7
20260510005005 74 22 0.0 2.6 0.00 0.00 0.00 45 1002.6
20260510004528 74 332 0.0 0.9 0.00 0.00 0.00 43 1002.7
20260510004037 74 332 0.0 0.9 0.00 0.00 0.00 43 1002.6
20260510003545 75 332 0.0 2.6 0.00 0.00 0.00 44 1002.7
20260510003021 76 332 0.9 3.5 0.00 0.00 0.00 41 1002.7
20260510002515 76 238 0.9 2.6 0.00 0.00 0.00 43 1002.9
20260510002031 76 331 0.0 2.6 0.00 0.00 0.00 41 1002.9
20260510001546 76 355 0.0 3.5 0.00 0.00 0.00 35 1002.8
20260510001054 76 355 1.7 3.5 0.00 0.00 0.00 36 1003.0
20260510000558 77 315 0.0 2.6 0.00 0.00 0.00 36 1003.0
20260510000032 76 300 0.9 4.3 0.00 0.00 0.00 36 1003.0
20260509235539 76 337 2.6 4.3 0.00 0.00 0.00 38 1003.2
20260509235051 76 276 2.6 3.5 0.00 0.00 0.00 36 1003.1
20260509234539 76 5 0.0 7.0 0.00 0.00 0.00 41 1003.1
20260509234039 76 355 0.9 7.0 0.00 0.00 0.00 35 1003.2
20260509233544 76 268 0.9 4.3 0.00 0.00 0.00 33 1003.3
20260509233010 76 279 0.9 7.0 0.00 0.00 0.00 32 1003.3
20260509232528 76 279 3.5 7.0 0.00 0.00 0.00 34 1003.3
20260509232031 76 316 2.6 6.1 0.00 0.00 0.00 35 1003.3
20260509231602 77 279 2.6 5.2 0.00 0.00 0.00 33 1003.3
20260509231003 76 306 1.7 7.0 0.00 0.00 0.00 40 1003.5
20260509230509 76 253 3.5 7.0 0.00 0.00 0.00 35 1003.6
20260509230043 76 327 0.9 5.2 0.00 0.00 0.00 36 1003.7
20260509225552 76 58 1.7 5.2 0.00 0.00 0.00 38 1003.8
20260509225055 77 5 0.9 4.3 0.00 0.00 0.00 38 1003.9
20260509224532 77 22 0.9 5.2 0.00 0.00 0.00 37 1003.9
20260509224039 77 326 1.7 6.1 0.00 0.00 0.00 40 1004.0
20260509223543 77 57 0.9 5.2 0.00 0.00 0.00 42 1004.1
20260509223101 76 326 1.7 7.8 0.00 0.00 0.00 37 1004.2
20260509222505 76 21 2.6 7.8 0.00 0.00 0.00 42 1004.4
20260509222021 76 39 0.0 7.0 0.00 0.00 0.00 40 1004.5
20260509221537 76 336 3.5 7.0 0.00 0.00 0.00 39 1004.6
20260509221042 76 22 3.5 7.8 0.00 0.00 0.00 42 1004.7
20260509220550 76 299 1.7 7.8 0.00 0.00 0.00 42 1004.9